Logan Peak - 24 Hour Table
Date & TimeSolar
Radiation
(W/m²)
Wind
Speed
(mph)
Wind
Direction
(degrees)
Air
Temperature
(°F)
Relative
Humidity
(%)
Barometeric
Pressure
(inHg)
2020/01/25 06:00 0 15.3 278 20.3 99 29.81
2020/01/25 05:00 0 15.3 284 20.2 99 29.81
2020/01/25 04:00 0 14.8 290 20.5 99 29.80
2020/01/25 03:00 0 15.4 276 20.8 99 29.81
2020/01/25 02:00 0 17.2 260 20.7 99 29.80
2020/01/25 01:00 0 17.6 264 20.4 99 29.81
2020/01/25 00:00 0 15.6 282 20.6 99 29.81
2020/01/24 23:00 0 13.6 301 21.5 99 29.81
2020/01/24 22:00 0 14.2 297 22.5 100 29.80
2020/01/24 21:00 0 14.9 312 22.5 100 29.80
2020/01/24 20:00 0 17.9 324 22.6 100 29.78
2020/01/24 19:00 0 18.1 323 22.7 100 29.80
2020/01/24 18:00 2 15.6 305 22.7 100 29.78
2020/01/24 17:00 18 16.9 296 23.0 100 29.78
2020/01/24 16:00 47 20.7 265 23.6 100 29.77
2020/01/24 15:00 77 25.5 233 22.7 100 29.77
2020/01/24 14:00 139 21.5 215 22.9 100 29.76
2020/01/24 13:00 142 19.9 198 23.0 99 29.78
2020/01/24 12:00 95 24.0 184 22.5 100 29.78
2020/01/24 11:00 47 20.8 185 21.6 100 29.80
2020/01/24 10:00 31 21.9 225 21.6 99 29.80
2020/01/24 09:00 12 24.6 235 22.3 99 29.80
2020/01/24 08:00 2 20.6 228 21.6 100 29.81
2020/01/24 07:00 0 21.0 237 21.6 99 29.79